Time,TemperatureF,DewpointF,PressureIn,WindDirection,WindDirectionDegrees,WindSpeedMPH,WindSpeedGustMPH,Humidity,HourlyPrecipIn,Conditions,Clouds,dailyrainin,SoftwareType,DateUTC
2013-12-23 00:01:00,20.3,17.8,29.17,NE,45,3.8,3.8,90,0.00,CLR,,0.00,WeatherDisplay:10.37,2013-12-23 06:01:00,
2013-12-23 00:06:00,20.1,17.7,29.17,NE,45,3.5,3.5,90,0.00,CLR,,0.00,WeatherDisplay:10.37,2013-12-23 06:06:00,
2013-12-23 00:11:00,20.3,17.8,29.17,NE,45,3.5,3.5,90,0.00,CLR,,0.00,WeatherDisplay:10.37,2013-12-23 06:11:00,
2013-12-23 00:16:00,20.1,17.7,29.18,NE,45,2.3,2.3,90,0.00,CLR,,0.00,WeatherDisplay:10.37,2013-12-23 06:16:00,
2013-12-23 00:22:00,20.1,17.7,29.18,NE,45,2.3,2.3,90,0.00,CLR,,0.00,WeatherDisplay:10.37,2013-12-23 06:22:00,
2013-12-23 00:27:00,20.1,17.7,29.18,NE,45,1.2,1.2,90,0.00,CLR,,0.00,WeatherDisplay:10.37,2013-12-23 06:27:00,
2013-12-23 00:32:00,19.9,17.7,29.18,NE,45,1.2,1.2,91,0.00,CLR,,0.00,WeatherDisplay:10.37,2013-12-23 06:32:00,
2013-12-23 00:37:00,19.8,17.6,29.18,NE,45,1.2,1.2,91,0.00,CLR,,0.00,WeatherDisplay:10.37,2013-12-23 06:37:00,
2013-12-23 00:42:00,19.8,17.6,29.17,NE,45,1.6,1.6,91,0.00,CLR,,0.00,WeatherDisplay:10.37,2013-12-23 06:42:00,
2013-12-23 00:47:00,19.8,17.8,29.17,NE,45,2.3,2.3,92,0.00,CLR,,0.00,WeatherDisplay:10.37,2013-12-23 06:47:00,
2013-12-23 00:52:00,19.8,17.8,29.17,North,0,3.5,3.5,92,0.00,CLR,,0.00,WeatherDisplay:10.37,2013-12-23 06:52:00,
2013-12-23 00:57:00,19.8,17.8,29.18,North,0,1.2,1.2,92,0.00,CLR,,0.00,WeatherDisplay:10.37,2013-12-23 06:57:00,
2013-12-23 01:02:00,19.8,17.8,29.18,North,0,2.3,0.0,92,0.00,CLR,,0.00,WeatherDisplay:10.37,2013-12-23 07:02:00,
2013-12-23 01:07:00,19.8,17.8,29.18,North,0,2.3,0.0,92,0.00,CLR,,0.00,WeatherDisplay:10.37,2013-12-23 07:07:00,
2013-12-23 01:12:00,19.6,17.9,29.18,North,0,1.2,1.2,93,0.00,CLR,,0.00,WeatherDisplay:10.37,2013-12-23 07:12:00,
2013-12-23 01:17:00,19.8,18.1,29.18,North,0,1.2,1.2,93,0.00,CLR,,0.00,WeatherDisplay:10.37,2013-12-23 07:17:00,
2013-12-23 01:22:00,19.6,17.9,29.18,North,0,1.2,0.0,93,0.00,CLR,,0.00,WeatherDisplay:10.37,2013-12-23 07:22:00,
2013-12-23 01:27:00,19.6,17.9,29.19,North,0,1.2,1.2,93,0.00,CLR,,0.00,WeatherDisplay:10.37,2013-12-23 07:27:00,
2013-12-23 01:32:00,19.6,17.9,29.19,North,0,0.0,0.0,93,0.00,CLR,,0.00,WeatherDisplay:10.37,2013-12-23 07:32:00,
2013-12-23 01:37:00,19.6,17.9,29.19,North,0,1.2,0.0,93,0.00,CLR,,0.00,WeatherDisplay:10.37,2013-12-23 07:37:00,
2013-12-23 01:42:00,19.6,17.9,29.19,North,0,0.0,0.0,93,0.00,CLR,,0.00,WeatherDisplay:10.37,2013-12-23 07:42:00,
2013-12-23 01:47:00,19.4,17.7,29.19,North,0,0.0,0.0,93,0.00,CLR,,0.00,WeatherDisplay:10.37,2013-12-23 07:47:00,
2013-12-23 01:52:00,19.4,17.7,29.19,North,0,0.0,0.0,93,0.00,CLR,,0.00,WeatherDisplay:10.37,2013-12-23 07:52:00,
2013-12-23 01:57:00,19.4,17.7,29.19,NNW,338,0.0,0.0,93,0.00,CLR,,0.00,WeatherDisplay:10.37,2013-12-23 07:57:00,
2013-12-23 02:02:00,19.4,18.0,29.20,NW,315,0.0,0.0,94,0.00,CLR,,0.00,WeatherDisplay:10.37,2013-12-23 08:02:00,
2013-12-23 02:07:00,19.4,18.0,29.20,NW,315,0.0,0.0,94,0.00,CLR,,0.00,WeatherDisplay:10.37,2013-12-23 08:07:00,
2013-12-23 02:12:00,19.2,17.8,29.20,NW,315,1.2,0.0,94,0.00,CLR,,0.00,WeatherDisplay:10.37,2013-12-23 08:12:00,
2013-12-23 02:17:00,19.2,17.8,29.20,NW,315,1.2,1.2,94,0.00,CLR,,0.00,WeatherDisplay:10.37,2013-12-23 08:17:00,
2013-12-23 02:22:00,19.0,17.6,29.20,NW,315,2.3,2.3,94,0.00,CLR,,0.00,WeatherDisplay:10.37,2013-12-23 08:22:00,
2013-12-23 02:27:00,19.0,17.6,29.20,NW,315,2.3,2.3,94,0.00,CLR,,0.00,WeatherDisplay:10.37,2013-12-23 08:27:00,
2013-12-23 02:32:00,19.0,17.6,29.20,NW,315,2.3,2.3,94,0.00,CLR,,0.00,WeatherDisplay:10.37,2013-12-23 08:32:00,
2013-12-23 02:37:00,19.0,17.6,29.21,West,270,3.5,3.5,94,0.00,CLR,,0.00,WeatherDisplay:10.37,2013-12-23 08:37:00,
2013-12-23 02:42:00,19.0,17.6,29.22,NW,315,1.2,0.0,94,0.00,CLR,,0.00,WeatherDisplay:10.37,2013-12-23 08:42:00,
2013-12-23 02:47:00,19.0,17.6,29.22,NW,315,1.2,0.0,94,0.00,CLR,,0.00,WeatherDisplay:10.37,2013-12-23 08:47:00,
2013-12-23 02:52:00,19.0,17.6,29.22,NW,315,2.3,0.0,94,0.00,CLR,,0.00,WeatherDisplay:10.37,2013-12-23 08:52:00,
2013-12-23 02:57:00,19.0,17.6,29.22,NW,315,1.2,1.2,94,0.00,CLR,,0.00,WeatherDisplay:10.37,2013-12-23 08:57:00,
2013-12-23 03:02:00,19.0,17.6,29.23,West,270,0.0,0.0,94,0.00,CLR,,0.00,WeatherDisplay:10.37,2013-12-23 09:02:00,
2013-12-23 03:07:00,19.0,17.6,29.23,NW,315,2.3,2.3,94,0.00,CLR,,0.00,WeatherDisplay:10.37,2013-12-23 09:07:00,
2013-12-23 03:12:00,19.0,17.6,29.23,NW,315,2.3,0.0,94,0.00,CLR,,0.00,WeatherDisplay:10.37,2013-12-23 09:12:00,
2013-12-23 03:17:00,18.9,17.4,29.23,NW,315,1.2,0.0,94,0.00,CLR,,0.00,WeatherDisplay:10.37,2013-12-23 09:17:00,
2013-12-23 03:22:00,18.9,17.2,29.23,NW,315,1.2,1.2,93,0.00,CLR,,0.00,WeatherDisplay:10.37,2013-12-23 09:22:00,
2013-12-23 03:27:00,18.9,17.2,29.22,NW,315,1.6,1.6,93,0.00,CLR,,0.00,WeatherDisplay:10.37,2013-12-23 09:27:00,
2013-12-23 03:32:00,18.9,17.4,29.23,NW,315,1.2,0.0,94,0.00,CLR,,0.00,WeatherDisplay:10.37,2013-12-23 09:32:00,
2013-12-23 03:38:00,18.9,17.4,29.23,NW,315,0.0,0.0,94,0.00,CLR,,0.00,WeatherDisplay:10.37,2013-12-23 09:38:00,
2013-12-23 03:43:00,18.7,17.2,29.23,NW,315,2.3,2.3,94,0.00,CLR,,0.00,WeatherDisplay:10.37,2013-12-23 09:43:00,
2013-12-23 03:48:00,18.9,17.4,29.23,NW,315,1.2,1.2,94,0.00,CLR,,0.00,WeatherDisplay:10.37,2013-12-23 09:48:00,
2013-12-23 03:53:00,18.7,17.2,29.23,NW,315,1.2,0.0,94,0.00,CLR,,0.00,WeatherDisplay:10.37,2013-12-23 09:53:00,
2013-12-23 03:58:00,18.7,17.2,29.23,NW,315,1.2,1.2,94,0.00,CLR,,0.00,WeatherDisplay:10.37,2013-12-23 09:58:00,
2013-12-23 04:03:00,18.7,17.2,29.23,NW,315,1.2,0.0,94,0.00,CLR,,0.00,WeatherDisplay:10.37,2013-12-23 10:03:00,
2013-12-23 04:08:00,18.7,17.2,29.23,NW,315,1.2,0.0,94,0.00,CLR,,0.00,WeatherDisplay:10.37,2013-12-23 10:08:00,
2013-12-23 04:13:00,18.5,17.1,29.24,NW,315,2.3,2.3,94,0.00,CLR,,0.00,WeatherDisplay:10.37,2013-12-23 10:13:00,
2013-12-23 04:18:00,18.5,17.1,29.24,NW,315,2.3,2.3,94,0.00,CLR,,0.00,WeatherDisplay:10.37,2013-12-23 10:18:00,
2013-12-23 04:23:00,18.5,17.1,29.24,NW,315,2.3,2.3,94,0.00,CLR,,0.00,WeatherDisplay:10.37,2013-12-23 10:23:00,
2013-12-23 04:28:00,18.5,17.1,29.24,North,0,2.3,2.3,94,0.00,CLR,,0.00,WeatherDisplay:10.37,2013-12-23 10:28:00,
2013-12-23 04:33:00,18.3,16.9,29.24,NW,315,2.3,2.3,94,0.00,CLR,,0.00,WeatherDisplay:10.37,2013-12-23 10:33:00,
2013-12-23 04:38:00,18.3,16.9,29.24,North,0,2.3,2.3,94,0.00,CLR,,0.00,WeatherDisplay:10.37,2013-12-23 10:38:00,
2013-12-23 04:43:00,18.3,16.9,29.24,NW,315,2.3,2.3,94,0.00,CLR,,0.00,WeatherDisplay:10.37,2013-12-23 10:43:00,
2013-12-23 04:48:00,18.1,16.7,29.24,North,0,1.2,1.2,94,0.00,CLR,,0.00,WeatherDisplay:10.37,2013-12-23 10:48:00,
2013-12-23 04:53:00,18.0,16.5,29.24,NW,315,1.2,0.0,94,0.00,CLR,,0.00,WeatherDisplay:10.37,2013-12-23 10:53:00,
2013-12-23 04:58:00,17.8,16.3,29.24,North,0,1.6,0.0,94,0.00,CLR,,0.00,WeatherDisplay:10.37,2013-12-23 10:58:00,
2013-12-23 05:03:00,17.8,16.3,29.24,NW,315,2.3,2.3,94,0.00,CLR,,0.00,WeatherDisplay:10.37,2013-12-23 11:03:00,
2013-12-23 05:08:00,17.6,16.2,29.24,NW,315,2.3,0.0,94,0.00,CLR,,0.00,WeatherDisplay:10.37,2013-12-23 11:08:00,
2013-12-23 05:13:00,17.4,16.0,29.24,NW,315,1.2,0.0,94,0.00,CLR,,0.00,WeatherDisplay:10.37,2013-12-23 11:13:00,
2013-12-23 05:18:00,17.2,15.8,29.24,North,0,1.2,1.2,94,0.00,CLR,,0.00,WeatherDisplay:10.37,2013-12-23 11:18:00,
2013-12-23 05:23:00,17.2,15.8,29.24,North,0,1.2,1.2,94,0.00,CLR,,0.00,WeatherDisplay:10.37,2013-12-23 11:23:00,
2013-12-23 05:28:00,17.1,15.6,29.24,North,0,1.2,1.2,94,0.00,CLR,,0.00,WeatherDisplay:10.37,2013-12-23 11:28:00,
2013-12-23 05:33:00,16.9,15.5,29.25,North,0,1.2,1.2,94,0.00,CLR,,0.00,WeatherDisplay:10.37,2013-12-23 11:33:00,
2013-12-23 05:38:00,16.9,15.5,29.24,North,0,1.2,0.0,94,0.00,CLR,,0.00,WeatherDisplay:10.37,2013-12-23 11:38:00,
2013-12-23 05:44:00,16.7,15.3,29.25,North,0,1.2,0.0,94,0.00,CLR,,0.00,WeatherDisplay:10.37,2013-12-23 11:44:00,
2013-12-23 05:49:00,16.7,15.3,29.25,North,0,2.3,2.3,94,0.00,CLR,,0.00,WeatherDisplay:10.37,2013-12-23 11:49:00,
2013-12-23 05:54:00,16.7,15.3,29.25,North,0,2.3,2.3,94,0.00,CLR,,0.00,WeatherDisplay:10.37,2013-12-23 11:54:00,
2013-12-23 05:59:00,16.7,15.5,29.25,North,0,3.5,3.5,95,0.00,CLR,,0.00,WeatherDisplay:10.37,2013-12-23 11:59:00,
2013-12-23 06:04:00,16.7,15.3,29.25,North,0,1.2,1.2,94,0.00,CLR,,0.00,WeatherDisplay:10.37,2013-12-23 12:04:00,
2013-12-23 06:09:00,16.7,15.5,29.25,North,0,2.3,2.3,95,0.00,CLR,,0.00,WeatherDisplay:10.37,2013-12-23 12:09:00,
2013-12-23 06:14:00,16.5,15.1,29.26,North,0,2.3,2.3,94,0.00,CLR,,0.00,WeatherDisplay:10.37,2013-12-23 12:14:00,
2013-12-23 06:19:00,16.5,15.3,29.26,North,0,2.3,2.3,95,0.00,CLR,,0.00,WeatherDisplay:10.37,2013-12-23 12:19:00,
2013-12-23 06:24:00,16.5,15.3,29.25,North,0,2.3,2.3,95,0.00,CLR,,0.00,WeatherDisplay:10.37,2013-12-23 12:24:00,
2013-12-23 06:30:00,16.5,15.3,29.26,North,0,2.3,2.3,95,0.00,CLR,,0.00,WeatherDisplay:10.37,2013-12-23 12:30:00,
2013-12-23 06:35:00,16.5,15.3,29.26,North,0,3.5,3.5,95,0.00,CLR,,0.00,WeatherDisplay:10.37,2013-12-23 12:35:00,
2013-12-23 06:40:00,16.5,15.3,29.27,North,0,2.3,2.3,95,0.00,CLR,,0.00,WeatherDisplay:10.37,2013-12-23 12:40:00,
2013-12-23 06:45:00,16.3,15.2,29.27,North,0,2.3,2.3,95,0.00,CLR,,0.00,WeatherDisplay:10.37,2013-12-23 12:45:00,
2013-12-23 06:50:00,16.3,14.9,29.27,North,0,2.3,2.3,94,0.00,CLR,,0.00,WeatherDisplay:10.37,2013-12-23 12:50:00,
2013-12-23 06:55:00,16.2,14.7,29.27,North,0,3.5,3.5,94,0.00,CLR,,0.00,WeatherDisplay:10.37,2013-12-23 12:55:00,
2013-12-23 07:00:00,16.2,14.7,29.27,North,0,2.3,2.3,94,0.00,CLR,,0.00,WeatherDisplay:10.37,2013-12-23 13:00:00,
2013-12-23 07:05:00,16.2,14.7,29.27,North,0,2.3,2.3,94,0.00,CLR,,0.00,WeatherDisplay:10.37,2013-12-23 13:05:00,
2013-12-23 07:10:00,16.0,14.6,29.27,North,0,3.5,3.5,94,0.00,CLR,,0.00,WeatherDisplay:10.37,2013-12-23 13:10:00,
2013-12-23 07:15:00,16.0,14.6,29.28,North,0,2.3,2.3,94,0.00,CLR,,0.00,WeatherDisplay:10.37,2013-12-23 13:15:00,
2013-12-23 07:20:00,15.8,14.4,29.28,North,0,2.3,2.3,94,0.00,CLR,,0.00,WeatherDisplay:10.37,2013-12-23 13:20:00,
2013-12-23 07:25:00,15.8,14.4,29.28,North,0,2.3,2.3,94,0.00,CLR,,0.00,WeatherDisplay:10.37,2013-12-23 13:25:00,
2013-12-23 07:30:00,15.6,14.2,29.28,North,0,1.2,1.2,94,0.00,CLR,,0.00,WeatherDisplay:10.37,2013-12-23 13:30:00,
2013-12-23 07:35:00,15.8,14.4,29.28,North,0,1.2,1.2,94,0.00,CLR,,0.00,WeatherDisplay:10.37,2013-12-23 13:35:00,
2013-12-23 07:40:00,15.6,14.2,29.28,North,0,1.2,1.2,94,0.00,CLR,,0.00,WeatherDisplay:10.37,2013-12-23 13:40:00,
2013-12-23 07:45:00,15.6,14.2,29.28,North,0,0.0,0.0,94,0.00,CLR,,0.00,WeatherDisplay:10.37,2013-12-23 13:45:00,
2013-12-23 07:50:00,15.6,14.2,29.29,North,0,0.0,0.0,94,0.00,CLR,,0.00,WeatherDisplay:10.37,2013-12-23 13:50:00,
2013-12-23 07:55:00,15.6,14.2,29.29,North,0,0.0,0.0,94,0.00,CLR,,0.00,WeatherDisplay:10.37,2013-12-23 13:55:00,
2013-12-23 08:00:00,15.4,14.0,29.29,North,0,0.0,0.0,94,0.00,CLR,,0.00,WeatherDisplay:10.37,2013-12-23 14:00:00,
2013-12-23 08:05:00,15.6,14.2,29.29,North,0,0.0,0.0,94,0.00,CLR,,0.00,WeatherDisplay:10.37,2013-12-23 14:05:00,
2013-12-23 08:10:00,16.0,14.6,29.30,North,0,0.0,0.0,94,0.00,CLR,,0.00,WeatherDisplay:10.37,2013-12-23 14:10:00,
2013-12-23 08:15:00,16.2,14.7,29.29,North,0,0.0,0.0,94,0.00,CLR,,0.00,WeatherDisplay:10.37,2013-12-23 14:15:00,
2013-12-23 08:20:00,16.3,14.9,29.29,North,0,0.0,0.0,94,0.00,CLR,,0.00,WeatherDisplay:10.37,2013-12-23 14:20:00,
2013-12-23 08:25:00,16.5,15.1,29.30,North,0,1.2,0.0,94,0.00,CLR,,0.00,WeatherDisplay:10.37,2013-12-23 14:25:00,
2013-12-23 08:30:00,16.9,15.5,29.30,North,0,0.0,0.0,94,0.00,CLR,,0.00,WeatherDisplay:10.37,2013-12-23 14:30:00,
2013-12-23 08:35:00,16.9,15.5,29.30,North,0,0.0,0.0,94,0.00,CLR,,0.00,WeatherDisplay:10.37,2013-12-23 14:35:00,
2013-12-23 08:40:00,17.1,15.4,29.30,North,0,2.3,2.3,93,0.00,CLR,,0.00,WeatherDisplay:10.37,2013-12-23 14:40:00,
2013-12-23 08:45:00,17.2,15.6,29.30,North,0,2.3,2.3,93,0.00,CLR,,0.00,WeatherDisplay:10.37,2013-12-23 14:45:00,
2013-12-23 08:50:00,17.2,15.6,29.31,North,0,3.5,3.5,93,0.00,CLR,,0.00,WeatherDisplay:10.37,2013-12-23 14:50:00,
2013-12-23 08:55:00,17.4,15.7,29.30,North,0,2.3,2.3,93,0.00,CLR,,0.00,WeatherDisplay:10.37,2013-12-23 14:55:00,
2013-12-23 09:00:00,17.6,15.7,29.31,North,0,3.5,3.5,92,0.00,CLR,,0.00,WeatherDisplay:10.37,2013-12-23 15:00:00,
2013-12-23 09:05:00,17.8,15.9,29.30,North,0,2.3,2.3,92,0.00,CLR,,0.00,WeatherDisplay:10.37,2013-12-23 15:05:00,
2013-12-23 09:10:00,18.0,16.0,29.31,North,0,1.2,0.0,92,0.00,CLR,,0.00,WeatherDisplay:10.37,2013-12-23 15:10:00,
2013-12-23 09:15:00,18.1,16.0,29.31,NE,45,1.2,1.6,91,0.00,CLR,,0.00,WeatherDisplay:10.37,2013-12-23 15:15:00,
2013-12-23 09:20:00,18.1,16.0,29.31,NE,45,2.3,2.3,91,0.00,CLR,,0.00,WeatherDisplay:10.37,2013-12-23 15:20:00,
2013-12-23 09:25:00,18.1,15.7,29.31,North,0,3.5,3.5,90,0.00,CLR,,0.00,WeatherDisplay:10.37,2013-12-23 15:25:00,
2013-12-23 09:30:00,18.3,15.9,29.31,North,0,2.3,2.3,90,0.00,CLR,,0.00,WeatherDisplay:10.37,2013-12-23 15:30:00,
2013-12-23 09:35:00,18.3,15.9,29.31,North,0,1.2,1.2,90,0.00,CLR,,0.00,WeatherDisplay:10.37,2013-12-23 15:35:00,
2013-12-23 09:40:00,18.5,15.8,29.31,NE,45,3.5,3.5,89,0.00,CLR,,0.00,WeatherDisplay:10.37,2013-12-23 15:40:00,
2013-12-23 09:45:00,18.5,15.8,29.32,NE,45,2.3,0.0,89,0.00,CLR,,0.00,WeatherDisplay:10.37,2013-12-23 15:45:00,
2013-12-23 09:50:00,18.9,16.2,29.32,NE,45,2.3,2.3,89,0.00,CLR,,0.00,WeatherDisplay:10.37,2013-12-23 15:50:00,
2013-12-23 09:55:00,19.2,16.2,29.32,East,90,2.3,2.3,88,0.00,CLR,,0.00,WeatherDisplay:10.37,2013-12-23 15:55:00,
2013-12-23 10:00:00,19.2,16.0,29.32,East,90,1.2,0.0,87,0.00,CLR,,0.00,WeatherDisplay:10.37,2013-12-23 16:00:00,
2013-12-23 10:05:00,19.2,16.0,29.32,ESE,112,2.3,2.3,87,0.00,CLR,,0.00,WeatherDisplay:10.37,2013-12-23 16:05:00,
2013-12-23 10:10:00,19.2,16.0,29.32,East,90,2.3,2.3,87,0.00,CLR,,0.00,WeatherDisplay:10.37,2013-12-23 16:10:00,
2013-12-23 10:15:00,18.9,15.4,29.32,NE,45,3.5,3.5,86,0.00,CLR,,0.00,WeatherDisplay:10.37,2013-12-23 16:15:00,
2013-12-23 10:20:00,19.0,15.5,29.32,NE,45,3.5,3.5,86,0.00,CLR,,0.00,WeatherDisplay:10.37,2013-12-23 16:20:00,
2013-12-23 10:25:00,19.4,15.9,29.32,NE,45,3.5,3.5,86,0.00,CLR,,0.00,WeatherDisplay:10.37,2013-12-23 16:25:00,
2013-12-23 10:30:00,19.6,15.8,29.32,NE,45,2.3,2.3,85,0.00,CLR,,0.00,WeatherDisplay:10.37,2013-12-23 16:30:00,
2013-12-23 10:35:00,19.9,16.2,29.33,East,90,2.3,2.3,85,0.00,CLR,,0.00,WeatherDisplay:10.37,2013-12-23 16:35:00,
2013-12-23 10:41:00,19.9,15.9,29.31,East,90,2.3,2.3,84,0.00,CLR,,0.00,WeatherDisplay:10.37,2013-12-23 16:41:00,
2013-12-23 10:46:00,20.5,16.4,29.31,ESE,112,2.3,2.3,84,0.00,CLR,,0.00,WeatherDisplay:10.37,2013-12-23 16:46:00,
2013-12-23 10:51:00,20.5,16.4,29.32,SE,135,1.2,1.2,84,0.00,CLR,,0.00,WeatherDisplay:10.37,2013-12-23 16:51:00,
2013-12-23 10:56:00,20.5,16.1,29.32,North,0,1.2,0.0,83,0.00,CLR,,0.00,WeatherDisplay:10.37,2013-12-23 16:56:00,
2013-12-23 11:01:00,20.7,16.3,29.32,North,0,1.2,1.2,83,0.00,CLR,,0.00,WeatherDisplay:10.37,2013-12-23 17:01:00,
2013-12-23 11:06:00,20.5,15.9,29.32,NE,45,2.3,2.3,82,0.00,CLR,,0.00,WeatherDisplay:10.37,2013-12-23 17:06:00,
2013-12-23 11:11:00,20.7,16.3,29.31,North,0,0.0,0.0,83,0.00,CLR,,0.00,WeatherDisplay:10.37,2013-12-23 17:11:00,
2013-12-23 11:16:00,20.7,16.0,29.31,NE,45,1.2,0.0,82,0.00,CLR,,0.00,WeatherDisplay:10.37,2013-12-23 17:16:00,
2013-12-23 11:21:00,20.8,16.2,29.31,East,90,1.2,0.0,82,0.00,CLR,,0.00,WeatherDisplay:10.37,2013-12-23 17:21:00,
2013-12-23 11:26:00,20.8,16.5,29.31,SE,135,1.2,0.0,83,0.00,CLR,,0.00,WeatherDisplay:10.37,2013-12-23 17:26:00,
2013-12-23 11:31:00,20.8,16.5,29.31,SW,225,1.6,0.0,83,0.00,CLR,,0.00,WeatherDisplay:10.37,2013-12-23 17:31:00,
2013-12-23 11:36:00,20.1,15.5,29.31,South,180,3.5,3.5,82,0.00,CLR,,0.00,WeatherDisplay:10.37,2013-12-23 17:36:00,
2013-12-23 11:41:00,18.9,14.6,29.31,NNW,338,5.8,5.8,83,0.00,CLR,,0.00,WeatherDisplay:10.37,2013-12-23 17:41:00,
2013-12-23 11:46:00,18.3,14.0,29.31,NW,315,1.2,0.0,83,0.00,CLR,,0.00,WeatherDisplay:10.37,2013-12-23 17:46:00,
2013-12-23 11:51:00,18.0,13.9,29.32,NW,315,3.5,3.5,84,0.00,CLR,,0.00,WeatherDisplay:10.37,2013-12-23 17:51:00,
2013-12-23 11:56:00,17.8,14.0,29.31,West,270,5.8,5.8,85,0.00,CLR,,0.00,WeatherDisplay:10.37,2013-12-23 17:56:00,
2013-12-23 12:01:00,17.6,13.9,29.31,North,0,3.5,3.5,85,0.00,CLR,,0.00,WeatherDisplay:10.37,2013-12-23 18:01:00,
2013-12-23 12:06:00,17.2,13.5,29.31,West,270,5.8,5.8,85,0.00,CLR,,0.00,WeatherDisplay:10.37,2013-12-23 18:06:00,
2013-12-23 12:11:00,17.6,13.9,29.31,West,270,3.5,3.5,85,0.00,CLR,,0.00,WeatherDisplay:10.37,2013-12-23 18:11:00,
2013-12-23 12:16:00,17.8,14.0,29.31,NW,315,3.5,3.5,85,0.00,CLR,,0.00,WeatherDisplay:10.37,2013-12-23 18:16:00,
2013-12-23 12:21:00,17.6,13.6,29.31,SW,225,3.5,0.0,84,0.00,CLR,,0.00,WeatherDisplay:10.37,2013-12-23 18:21:00,
2013-12-23 12:26:00,18.0,14.2,29.31,SW,225,3.5,3.5,85,0.00,CLR,,0.00,WeatherDisplay:10.37,2013-12-23 18:26:00,
2013-12-23 12:31:00,18.1,14.4,29.31,West,270,1.2,0.0,85,0.00,CLR,,0.00,WeatherDisplay:10.37,2013-12-23 18:31:00,
2013-12-23 12:36:00,18.5,14.5,29.31,WNW,292,3.5,3.5,84,0.00,CLR,,0.00,WeatherDisplay:10.37,2013-12-23 18:36:00,
2013-12-23 12:41:00,18.9,14.8,29.31,SW,225,2.3,2.3,84,0.00,CLR,,0.00,WeatherDisplay:10.37,2013-12-23 18:41:00,
2013-12-23 12:46:00,18.9,14.3,29.31,North,0,4.5,4.5,82,0.00,CLR,,0.00,WeatherDisplay:10.37,2013-12-23 18:46:00,
2013-12-23 12:51:00,18.3,13.5,29.31,West,270,3.5,3.5,81,0.00,CLR,,0.00,WeatherDisplay:10.37,2013-12-23 18:51:00,
2013-12-23 12:56:00,18.9,14.0,29.31,NW,315,3.5,3.5,81,0.00,CLR,,0.00,WeatherDisplay:10.37,2013-12-23 18:56:00,
2013-12-23 13:01:00,19.0,14.2,29.31,NW,315,4.6,4.6,81,0.00,CLR,,0.00,WeatherDisplay:10.37,2013-12-23 19:01:00,
2013-12-23 13:06:00,19.2,14.1,29.31,SW,225,4.6,4.6,80,0.00,CLR,,0.00,WeatherDisplay:10.37,2013-12-23 19:06:00,
2013-12-23 13:11:00,19.8,14.6,29.31,NW,315,4.6,4.6,80,0.00,CLR,,0.00,WeatherDisplay:10.37,2013-12-23 19:11:00,
2013-12-23 13:16:00,19.9,14.2,29.31,North,0,3.5,3.5,78,0.00,CLR,,0.00,WeatherDisplay:10.37,2013-12-23 19:16:00,
2013-12-23 13:21:00,19.9,13.6,29.31,NW,315,3.5,3.5,76,0.00,CLR,,0.00,WeatherDisplay:10.37,2013-12-23 19:21:00,
2013-12-23 13:26:00,19.8,13.7,29.32,West,270,3.5,3.5,77,0.00,CLR,,0.00,WeatherDisplay:10.37,2013-12-23 19:26:00,
2013-12-23 13:31:00,19.6,13.5,29.32,NW,315,2.3,2.3,77,0.00,CLR,,0.00,WeatherDisplay:10.37,2013-12-23 19:31:00,
2013-12-23 13:36:00,19.8,13.4,29.32,NW,315,3.5,3.5,76,0.00,CLR,,0.00,WeatherDisplay:10.37,2013-12-23 19:36:00,
2013-12-23 13:41:00,19.2,12.9,29.32,WSW,248,4.6,4.6,76,0.00,CLR,,0.00,WeatherDisplay:10.37,2013-12-23 19:41:00,
2013-12-23 13:46:00,18.7,12.4,29.32,NW,315,5.8,5.8,76,0.00,CLR,,0.00,WeatherDisplay:10.37,2013-12-23 19:46:00,
2013-12-23 13:51:00,18.1,12.1,29.32,NW,315,4.6,4.6,77,0.00,CLR,,0.00,WeatherDisplay:10.37,2013-12-23 19:51:00,
2013-12-23 13:56:00,17.8,12.1,29.32,West,270,3.5,3.5,78,0.00,CLR,,0.00,WeatherDisplay:10.37,2013-12-23 19:56:00,
2013-12-23 14:01:00,17.4,11.7,29.32,NW,315,3.5,3.5,78,0.00,CLR,,0.00,WeatherDisplay:10.37,2013-12-23 20:01:00,
2013-12-23 14:06:00,17.1,11.4,29.32,NW,315,4.6,4.6,78,0.00,CLR,,0.00,WeatherDisplay:10.37,2013-12-23 20:06:00,
2013-12-23 14:11:00,17.1,11.7,29.32,NW,315,6.9,6.9,79,0.00,CLR,,0.00,WeatherDisplay:10.37,2013-12-23 20:11:00,
2013-12-23 14:16:00,16.7,11.3,29.33,NW,315,5.8,5.8,79,0.00,CLR,,0.00,WeatherDisplay:10.37,2013-12-23 20:16:00,
2013-12-23 14:21:00,16.2,11.1,29.32,SW,225,5.8,5.8,80,0.00,CLR,,0.00,WeatherDisplay:10.37,2013-12-23 20:21:00,
2013-12-23 14:26:00,16.2,11.1,29.32,SW,225,3.5,3.5,80,0.00,CLR,,0.00,WeatherDisplay:10.37,2013-12-23 20:26:00,
2013-12-23 14:31:00,16.2,11.4,29.33,West,270,3.5,3.5,81,0.00,CLR,,0.00,WeatherDisplay:10.37,2013-12-23 20:31:00,
2013-12-23 14:36:00,15.8,11.3,29.33,NW,315,6.9,6.9,82,0.00,CLR,,0.00,WeatherDisplay:10.37,2013-12-23 20:36:00,
2013-12-23 14:41:00,15.3,10.8,29.33,NW,315,4.6,4.6,82,0.00,CLR,,0.00,WeatherDisplay:10.37,2013-12-23 20:41:00,
2013-12-23 14:46:00,15.3,11.0,29.33,West,270,4.6,4.6,83,0.00,CLR,,0.00,WeatherDisplay:10.37,2013-12-23 20:46:00,
2013-12-23 14:51:00,14.9,10.7,29.33,NW,315,3.5,3.5,83,0.00,CLR,,0.00,WeatherDisplay:10.37,2013-12-23 20:51:00,
2013-12-23 14:56:00,14.7,10.8,29.33,NW,315,4.6,4.6,84,0.00,CLR,,0.00,WeatherDisplay:10.37,2013-12-23 20:56:00,
2013-12-23 15:01:00,14.5,10.6,29.34,NW,315,3.5,3.5,84,0.00,CLR,,0.00,WeatherDisplay:10.37,2013-12-23 21:01:00,
2013-12-23 15:06:00,14.5,10.6,29.33,NW,315,3.5,3.5,84,0.00,CLR,,0.00,WeatherDisplay:10.37,2013-12-23 21:06:00,
2013-12-23 15:11:00,14.0,10.1,29.34,NW,315,4.6,4.6,84,0.00,CLR,,0.00,WeatherDisplay:10.37,2013-12-23 21:11:00,
2013-12-23 15:16:00,14.0,10.3,29.34,NW,315,4.6,4.6,85,0.00,CLR,,0.00,WeatherDisplay:10.37,2013-12-23 21:16:00,
2013-12-23 15:21:00,13.8,10.1,29.34,NW,315,5.8,5.8,85,0.00,CLR,,0.00,WeatherDisplay:10.37,2013-12-23 21:21:00,
2013-12-23 15:26:00,13.5,9.8,29.35,West,270,3.5,3.5,85,0.00,CLR,,0.00,WeatherDisplay:10.37,2013-12-23 21:26:00,
2013-12-23 15:31:00,13.5,9.5,29.35,West,270,5.8,5.8,84,0.00,CLR,,0.00,WeatherDisplay:10.37,2013-12-23 21:31:00,
2013-12-23 15:36:00,13.1,9.2,29.35,NW,315,3.5,3.5,84,0.00,CLR,,0.00,WeatherDisplay:10.37,2013-12-23 21:36:00,
2013-12-23 15:41:00,12.9,9.0,29.35,SW,225,3.5,3.5,84,0.00,CLR,,0.00,WeatherDisplay:10.37,2013-12-23 21:41:00,
2013-12-23 15:46:00,12.9,9.0,29.35,NW,315,4.6,4.6,84,0.00,CLR,,0.00,WeatherDisplay:10.37,2013-12-23 21:46:00,
2013-12-23 15:51:00,12.7,8.8,29.36,NW,315,5.8,5.8,84,0.00,CLR,,0.00,WeatherDisplay:10.37,2013-12-23 21:51:00,
2013-12-23 15:56:00,12.6,8.6,29.36,NW,315,8.1,8.1,84,0.00,CLR,,0.00,WeatherDisplay:10.37,2013-12-23 21:56:00,
2013-12-23 16:01:00,12.4,8.5,29.36,NW,315,3.5,3.5,84,0.00,CLR,,0.00,WeatherDisplay:10.37,2013-12-23 22:01:00,
2013-12-23 16:06:00,12.2,8.3,29.36,NNW,338,3.5,3.5,84,0.00,CLR,,0.00,WeatherDisplay:10.37,2013-12-23 22:06:00,
2013-12-23 16:11:00,12.0,8.1,29.36,NW,315,3.5,3.5,84,0.00,CLR,,0.00,WeatherDisplay:10.37,2013-12-23 22:11:00,
2013-12-23 16:16:00,12.0,8.4,29.36,NW,315,3.5,3.5,85,0.00,CLR,,0.00,WeatherDisplay:10.37,2013-12-23 22:16:00,
2013-12-23 16:21:00,12.0,8.4,29.36,NW,315,3.5,3.5,85,0.00,CLR,,0.00,WeatherDisplay:10.37,2013-12-23 22:21:00,
2013-12-23 16:26:00,11.7,8.0,29.37,West,270,5.8,5.8,85,0.00,CLR,,0.00,WeatherDisplay:10.37,2013-12-23 22:26:00,
2013-12-23 16:31:00,11.3,7.7,29.37,West,270,6.9,6.9,85,0.00,CLR,,0.00,WeatherDisplay:10.37,2013-12-23 22:31:00,
2013-12-23 16:36:00,11.3,7.7,29.37,NW,315,4.6,0.0,85,0.00,CLR,,0.00,WeatherDisplay:10.37,2013-12-23 22:36:00,
2013-12-23 16:41:00,11.1,7.5,29.37,NW,315,5.8,5.8,85,0.00,CLR,,0.00,WeatherDisplay:10.37,2013-12-23 22:41:00,
2013-12-23 16:46:00,11.1,7.5,29.37,NW,315,3.5,3.5,85,0.00,CLR,,0.00,WeatherDisplay:10.37,2013-12-23 22:46:00,
2013-12-23 16:51:00,10.9,7.3,29.38,NW,315,3.5,3.5,85,0.00,CLR,,0.00,WeatherDisplay:10.37,2013-12-23 22:51:00,
2013-12-23 16:56:00,10.6,6.7,29.38,West,270,5.8,5.8,84,0.00,CLR,,0.00,WeatherDisplay:10.37,2013-12-23 22:56:00,
2013-12-23 17:01:00,10.4,6.5,29.38,NW,315,2.3,2.3,84,0.00,CLR,,0.00,WeatherDisplay:10.37,2013-12-23 23:01:00,
2013-12-23 17:06:00,10.4,6.5,29.38,NW,315,2.3,2.3,84,0.00,CLR,,0.00,WeatherDisplay:10.37,2013-12-23 23:06:00,
2013-12-23 17:11:00,9.9,6.0,29.38,West,270,5.8,5.8,84,0.00,CLR,,0.00,WeatherDisplay:10.37,2013-12-23 23:11:00,
2013-12-23 17:16:00,10.0,6.4,29.39,NW,315,5.8,5.8,85,0.00,CLR,,0.00,WeatherDisplay:10.37,2013-12-23 23:16:00,
2013-12-23 17:22:00,9.7,6.1,29.39,WNW,292,5.8,5.8,85,0.00,CLR,,0.00,WeatherDisplay:10.37,2013-12-23 23:22:00,
2013-12-23 17:27:00,9.5,5.9,29.39,SW,225,8.1,8.1,85,0.00,CLR,,0.00,WeatherDisplay:10.37,2013-12-23 23:27:00,
2013-12-23 17:32:00,9.5,5.9,29.39,NW,315,3.5,3.5,85,0.00,CLR,,0.00,WeatherDisplay:10.37,2013-12-23 23:32:00,
2013-12-23 17:37:00,9.5,5.9,29.39,NW,315,5.8,5.8,85,0.00,CLR,,0.00,WeatherDisplay:10.37,2013-12-23 23:37:00,
2013-12-23 17:42:00,9.3,5.7,29.39,NW,315,6.9,6.9,85,0.00,CLR,,0.00,WeatherDisplay:10.37,2013-12-23 23:42:00,
2013-12-23 17:47:00,9.1,5.5,29.39,SW,225,5.8,5.8,85,0.00,CLR,,0.00,WeatherDisplay:10.37,2013-12-23 23:47:00,
2013-12-23 17:52:00,9.1,5.5,29.39,NW,315,4.6,4.6,85,0.00,CLR,,0.00,WeatherDisplay:10.37,2013-12-23 23:52:00,
2013-12-23 17:57:00,9.1,5.5,29.39,NW,315,3.5,3.5,85,0.00,CLR,,0.00,WeatherDisplay:10.37,2013-12-23 23:57:00,
2013-12-23 18:02:00,9.1,5.5,29.39,West,270,4.6,4.6,85,0.00,CLR,,0.00,WeatherDisplay:10.37,2013-12-24 00:02:00,
2013-12-23 18:07:00,9.1,5.5,29.40,West,270,4.6,4.6,85,0.00,CLR,,0.00,WeatherDisplay:10.37,2013-12-24 00:07:00,
2013-12-23 18:12:00,9.0,5.4,29.40,NW,315,4.6,4.6,85,0.00,CLR,,0.00,WeatherDisplay:10.37,2013-12-24 00:12:00,
2013-12-23 18:17:00,9.0,5.4,29.40,NW,315,5.8,5.8,85,0.00,CLR,,0.00,WeatherDisplay:10.37,2013-12-24 00:17:00,
2013-12-23 18:22:00,9.0,5.6,29.41,NW,315,3.5,3.5,86,0.00,CLR,,0.00,WeatherDisplay:10.37,2013-12-24 00:22:00,
2013-12-23 18:27:00,9.0,5.6,29.41,NW,315,3.5,3.5,86,0.00,CLR,,0.00,WeatherDisplay:10.37,2013-12-24 00:27:00,
2013-12-23 18:32:00,8.8,5.4,29.41,NW,315,4.6,4.6,86,0.00,CLR,,0.00,WeatherDisplay:10.37,2013-12-24 00:32:00,
2013-12-23 18:37:00,8.8,5.4,29.41,NW,315,5.8,5.8,86,0.00,CLR,,0.00,WeatherDisplay:10.37,2013-12-24 00:37:00,
2013-12-23 18:42:00,8.8,5.4,29.41,NW,315,5.8,5.8,86,0.00,CLR,,0.00,WeatherDisplay:10.37,2013-12-24 00:42:00,
2013-12-23 18:47:00,8.8,5.4,29.42,NW,315,3.5,3.5,86,0.00,CLR,,0.00,WeatherDisplay:10.37,2013-12-24 00:47:00,
2013-12-23 18:52:00,8.6,5.3,29.42,NW,315,3.5,3.5,86,0.00,CLR,,0.00,WeatherDisplay:10.37,2013-12-24 00:52:00,
2013-12-23 18:57:00,8.4,5.1,29.42,West,270,5.8,5.8,86,0.00,CLR,,0.00,WeatherDisplay:10.37,2013-12-24 00:57:00,
2013-12-23 19:02:00,8.6,5.3,29.42,NW,315,3.5,3.5,86,0.00,CLR,,0.00,WeatherDisplay:10.37,2013-12-24 01:02:00,
2013-12-23 19:07:00,8.6,5.3,29.42,NW,315,3.5,3.5,86,0.00,CLR,,0.00,WeatherDisplay:10.37,2013-12-24 01:07:00,
2013-12-23 19:12:00,8.4,5.1,29.43,NW,315,5.8,5.8,86,0.00,CLR,,0.00,WeatherDisplay:10.37,2013-12-24 01:12:00,
2013-12-23 19:17:00,8.4,5.1,29.43,North,0,5.8,5.8,86,0.00,CLR,,0.00,WeatherDisplay:10.37,2013-12-24 01:17:00,
2013-12-23 19:22:00,8.2,4.9,29.43,NW,315,6.9,6.9,86,0.00,CLR,,0.00,WeatherDisplay:10.37,2013-12-24 01:22:00,
2013-12-23 19:27:00,8.2,4.9,29.43,NW,315,5.8,5.8,86,0.00,CLR,,0.00,WeatherDisplay:10.37,2013-12-24 01:27:00,
2013-12-23 19:32:00,8.4,5.3,29.44,SW,225,3.5,3.5,87,0.00,CLR,,0.00,WeatherDisplay:10.37,2013-12-24 01:32:00,
2013-12-23 19:37:00,8.2,5.2,29.43,West,270,3.5,3.5,87,0.00,CLR,,0.00,WeatherDisplay:10.37,2013-12-24 01:37:00,
2013-12-23 19:42:00,8.4,5.3,29.44,NW,315,8.1,8.1,87,0.00,CLR,,0.00,WeatherDisplay:10.37,2013-12-24 01:42:00,
2013-12-23 19:47:00,8.4,5.3,29.44,West,270,5.8,5.8,87,0.00,CLR,,0.00,WeatherDisplay:10.37,2013-12-24 01:47:00,
2013-12-23 19:52:00,8.2,5.2,29.43,NW,315,3.5,3.8,87,0.00,CLR,,0.00,WeatherDisplay:10.37,2013-12-24 01:52:00,
2013-12-23 19:57:00,8.2,5.2,29.43,NW,315,4.6,4.6,87,0.00,CLR,,0.00,WeatherDisplay:10.37,2013-12-24 01:57:00,
2013-12-23 20:02:00,8.2,5.2,29.44,West,270,3.5,3.5,87,0.00,CLR,,0.00,WeatherDisplay:10.37,2013-12-24 02:02:00,
2013-12-23 20:07:00,8.2,5.2,29.43,West,270,3.5,3.5,87,0.00,CLR,,0.00,WeatherDisplay:10.37,2013-12-24 02:07:00,
2013-12-23 20:12:00,8.1,5.0,29.44,WNW,292,6.9,6.9,87,0.00,CLR,,0.00,WeatherDisplay:10.37,2013-12-24 02:12:00,
2013-12-23 20:17:00,7.9,4.8,29.44,NW,315,4.6,4.6,87,0.00,CLR,,0.00,WeatherDisplay:10.37,2013-12-24 02:17:00,
2013-12-23 20:22:00,7.9,4.8,29.44,NW,315,5.8,5.8,87,0.00,CLR,,0.00,WeatherDisplay:10.37,2013-12-24 02:22:00,
2013-12-23 20:27:00,7.9,4.8,29.43,West,270,3.5,3.5,87,0.00,CLR,,0.00,WeatherDisplay:10.37,2013-12-24 02:27:00,
2013-12-23 20:32:00,7.7,4.6,29.43,NW,315,5.8,5.8,87,0.00,CLR,,0.00,WeatherDisplay:10.37,2013-12-24 02:32:00,
2013-12-23 20:37:00,7.5,4.5,29.44,SW,225,3.5,3.5,87,0.00,CLR,,0.00,WeatherDisplay:10.37,2013-12-24 02:37:00,
2013-12-23 20:42:00,7.5,4.5,29.44,NW,315,5.8,5.8,87,0.00,CLR,,0.00,WeatherDisplay:10.37,2013-12-24 02:42:00,
2013-12-23 20:47:00,7.3,4.3,29.44,West,270,3.5,3.5,87,0.00,CLR,,0.00,WeatherDisplay:10.37,2013-12-24 02:47:00,
2013-12-23 20:52:00,7.3,4.3,29.44,West,270,3.5,3.5,87,0.00,CLR,,0.00,WeatherDisplay:10.37,2013-12-24 02:52:00,
2013-12-23 20:57:00,7.2,4.1,29.43,NW,315,4.6,4.6,87,0.00,CLR,,0.00,WeatherDisplay:10.37,2013-12-24 02:57:00,
2013-12-23 21:02:00,7.0,3.9,29.44,NW,315,5.8,5.8,87,0.00,CLR,,0.00,WeatherDisplay:10.37,2013-12-24 03:02:00,
2013-12-23 21:07:00,7.0,3.9,29.44,NW,315,5.8,5.8,87,0.00,CLR,,0.00,WeatherDisplay:10.37,2013-12-24 03:07:00,
2013-12-23 21:12:00,6.6,3.3,29.44,NW,315,2.3,2.3,86,0.00,CLR,,0.00,WeatherDisplay:10.37,2013-12-24 03:12:00,
2013-12-23 21:17:00,6.3,3.0,29.44,West,270,3.5,3.5,86,0.00,CLR,,0.00,WeatherDisplay:10.37,2013-12-24 03:17:00,
2013-12-23 21:22:00,6.1,2.8,29.44,NW,315,3.5,3.5,86,0.00,CLR,,0.00,WeatherDisplay:10.37,2013-12-24 03:22:00,
2013-12-23 21:27:00,5.9,2.6,29.44,NW,315,2.3,2.3,86,0.00,CLR,,0.00,WeatherDisplay:10.37,2013-12-24 03:27:00,
2013-12-23 21:32:00,5.5,2.3,29.44,West,270,3.5,3.5,86,0.00,CLR,,0.00,WeatherDisplay:10.37,2013-12-24 03:32:00,
2013-12-23 21:37:00,5.4,1.8,29.44,West,270,4.6,4.6,85,0.00,CLR,,0.00,WeatherDisplay:10.37,2013-12-24 03:37:00,
2013-12-23 21:42:00,5.2,1.7,29.43,SW,225,5.8,5.8,85,0.00,CLR,,0.00,WeatherDisplay:10.37,2013-12-24 03:42:00,
2013-12-23 21:47:00,5.0,1.5,29.44,NW,315,3.5,3.5,85,0.00,CLR,,0.00,WeatherDisplay:10.37,2013-12-24 03:47:00,
2013-12-23 21:52:00,4.6,1.1,29.44,NW,315,3.5,3.5,85,0.00,CLR,,0.00,WeatherDisplay:10.37,2013-12-24 03:52:00,
2013-12-23 21:57:00,4.6,1.1,29.44,NNW,338,5.8,5.8,85,0.00,CLR,,0.00,WeatherDisplay:10.37,2013-12-24 03:57:00,
2013-12-23 22:02:00,4.5,0.9,29.45,West,270,3.5,3.5,85,0.00,CLR,,0.00,WeatherDisplay:10.37,2013-12-24 04:02:00,
2013-12-23 22:08:00,4.1,0.6,29.45,West,270,4.5,4.5,85,0.00,CLR,,0.00,WeatherDisplay:10.37,2013-12-24 04:08:00,
2013-12-23 22:13:00,3.9,0.4,29.44,NW,315,3.5,3.5,85,0.00,CLR,,0.00,WeatherDisplay:10.37,2013-12-24 04:13:00,
2013-12-23 22:18:00,3.9,0.4,29.44,West,270,3.5,3.5,85,0.00,CLR,,0.00,WeatherDisplay:10.37,2013-12-24 04:18:00,
2013-12-23 22:23:00,3.7,0.2,29.44,West,270,3.5,3.5,85,0.00,CLR,,0.00,WeatherDisplay:10.37,2013-12-24 04:23:00,
2013-12-23 22:28:00,3.4,-0.1,29.45,West,270,3.5,3.5,85,0.00,CLR,,0.00,WeatherDisplay:10.37,2013-12-24 04:28:00,
2013-12-23 22:33:00,3.2,-0.5,29.44,NW,315,3.5,3.5,84,0.00,CLR,,0.00,WeatherDisplay:10.37,2013-12-24 04:33:00,
2013-12-23 22:38:00,3.0,-0.7,29.45,WNW,292,2.3,2.3,84,0.00,CLR,,0.00,WeatherDisplay:10.37,2013-12-24 04:38:00,
2013-12-23 22:43:00,2.8,-0.9,29.44,West,270,2.3,2.3,84,0.00,CLR,,0.00,WeatherDisplay:10.37,2013-12-24 04:43:00,
2013-12-23 22:48:00,2.7,-1.1,29.45,West,270,3.5,3.5,84,0.00,CLR,,0.00,WeatherDisplay:10.37,2013-12-24 04:48:00,
2013-12-23 22:53:00,2.5,-1.3,29.44,SW,225,3.5,3.5,84,0.00,CLR,,0.00,WeatherDisplay:10.37,2013-12-24 04:53:00,
2013-12-23 22:58:00,2.3,-1.4,29.45,West,270,3.5,3.5,84,0.00,CLR,,0.00,WeatherDisplay:10.37,2013-12-24 04:58:00,
2013-12-23 23:01:00,2.1,-1.6,29.45,West,270,3.5,3.5,84,0.00,CLR,,0.00,WeatherDisplay:10.37,2013-12-24 05:01:00,
2013-12-23 23:06:00,1.9,-1.8,29.44,West,270,2.3,2.3,84,0.00,CLR,,0.00,WeatherDisplay:10.37,2013-12-24 05:06:00,
2013-12-23 23:11:00,1.8,-2.0,29.44,West,270,2.3,2.3,84,0.00,CLR,,0.00,WeatherDisplay:10.37,2013-12-24 05:11:00,
2013-12-23 23:16:00,1.6,-2.1,29.45,West,270,3.5,3.5,84,0.00,CLR,,0.00,WeatherDisplay:10.37,2013-12-24 05:16:00,
2013-12-23 23:21:00,1.6,-2.1,29.45,West,270,1.2,1.2,84,0.00,CLR,,0.00,WeatherDisplay:10.37,2013-12-24 05:21:00,
2013-12-23 23:26:00,1.2,-2.5,29.45,North,0,1.2,0.0,84,0.00,CLR,,0.00,WeatherDisplay:10.37,2013-12-24 05:26:00,
2013-12-23 23:31:00,1.0,-2.7,29.45,West,270,1.2,1.2,84,0.00,CLR,,0.00,WeatherDisplay:10.37,2013-12-24 05:31:00,
2013-12-23 23:36:00,1.0,-2.4,29.45,NW,315,3.5,3.5,85,0.00,CLR,,0.00,WeatherDisplay:10.37,2013-12-24 05:36:00,
2013-12-23 23:41:00,0.9,-2.6,29.45,West,270,2.3,2.3,85,0.00,CLR,,0.00,WeatherDisplay:10.37,2013-12-24 05:41:00,
2013-12-23 23:46:00,0.9,-2.6,29.45,West,270,3.5,3.5,85,0.00,CLR,,0.00,WeatherDisplay:10.37,2013-12-24 05:46:00,
2013-12-23 23:51:00,0.9,-2.6,29.46,West,270,3.5,3.5,85,0.00,CLR,,0.00,WeatherDisplay:10.37,2013-12-24 05:51:00,
2013-12-23 23:56:00,0.7,-2.8,29.46,NW,315,2.3,2.3,85,0.00,CLR,,0.00,WeatherDisplay:10.37,2013-12-24 05:56:00,